User: anonymous   Login
Location: Unspecified
(0.0000°N, 0.0000°E)
Time: 08:55:37
(UTC+00:00)
Language:

DSP F15 - Orbit

View from above orbital plane
View from above orbital plane
View from above satellite
View from above satellite

Ground track
Ground track

The orbit data is extracted from the following two-line orbital elements,

1 20929U 90095A   17227.76200920 0.00000000  00000-0  00000-0 0    03
2 20929  15.3745  10.5375 0006441 332.0450  27.9324  0.98396688    06
Epoch (UTC): 15 August 2017 18:17:17
Eccentricity: 0.0006441
inclination: 15.3745°
perigee height: 36293 km
apogee height: 36348 km
right ascension of ascending node: 10.5375°
argument of perigee: 332.0450°
revolutions per day: 0.98396688
mean anomaly at epoch: 27.9324°
orbit number at epoch: 0

The dashed part of the orbit path shows where the satellite is in the earth's shadow,  

DLR